[[{"header":{"parameterUnit":"m.s-1","parameterCategory":1,"la1":30.2991,"la2":30.254,"lo1":-89.0895,"lo2":-89.0444,"dy":0.0017,"dx":0.0017,"nx":28,"ny":28,"refTime":"2025-12-04T03:00:00:Z","depth":0,"parameterNumber":2,"parameterNumberName":"U-component_of_WINDS"},"data":[0,0,0,0,0,0,0,0,0,0,0,0,0,0,0,0,0,0,0,0,0,0,0,0,0,0,0,0,0,0,0,0,0,0,0,0,0,0,0,0,0,0,0,0,0,0,0,0,0,0,0,0,0,0,0,0,0,0,-1.3851,-1.3851,0,-1.3843,-1.3842,-1.3842,-1.3762,-1.376,-1.3758,-1.3756,-1.375,-1.3752,-1.3753,0,0,0,0,0,0,0,0,0,0,0,0,0,-1.3801,-1.3803,-1.3851,-1.3851,-1.3851,-1.3843,-1.3842,-1.3842,-1.3762,-1.376,-1.3758,-1.3755,-1.375,-1.3752,-1.3754,0,0,0,0,0,0,0,0,0,0,0,0,0,-1.3811,-1.3803,-1.3851,-1.381,-1.3806,-1.3843,-1.3842,-1.3842,-1.3763,-1.376,-1.3757,-1.3754,-1.3749,-1.3751,-1.3754,-1.383,0,0,-1.3762,-1.3763,0,0,0,0,0,0,0,0,-1.3811,-1.3813,-1.3816,-1.3813,-1.3809,-1.38,-1.3822,-1.3838,-1.3764,-1.378,-1.3756,-1.3753,-1.3769,-1.377,-1.3775,-1.3829,-1.3829,-1.3762,-1.3763,-1.3765,-1.3765,0,0,0,0,0,0,0,-1.381,-1.3813,-1.3848,-1.3816,-1.3812,-1.3793,-1.3791,-1.3825,-1.3792,-1.3778,-1.3772,-1.3772,-1.3767,-1.3773,-1.3774,-1.3829,-1.3762,-1.3764,-1.3766,-1.3767,-1.3946,-1.3949,0,0,0,0,0,0,-1.3815,-1.3813,-1.3848,-1.3848,-1.3802,-1.3796,-1.3794,-1.3806,-1.3791,-1.3786,-1.3775,-1.3768,-1.377,-1.3772,-1.3774,-1.3862,-1.3765,-1.3767,-1.3768,-1.3943,-1.3947,-1.395,0,0,0,0,0,0,-1.3814,-1.3819,-1.3849,-1.3829,-1.3831,-1.38,-1.3815,-1.3808,-1.3813,-1.3788,-1.3782,-1.3787,-1.3768,-1.377,-1.3816,-1.3861,-1.3768,-1.377,-1.3939,-1.3944,-1.3948,-1.404,0,0,0,0,0,0,-1.3813,-1.3819,-1.3847,-1.383,-1.3832,-1.3891,-1.3817,-1.381,-1.3818,-1.3809,-1.3798,-1.3793,-1.3765,-1.3813,-1.3819,-1.3863,-1.3772,-1.3935,-1.3941,-1.3947,-1.4033,-1.4047,-1.406,0,0,0,0,0,-1.3811,-1.3873,-1.3849,-1.3853,-1.3867,-1.3893,-1.3895,-1.3861,-1.3822,-1.385,-1.3834,-1.3794,-1.3855,-1.3818,-1.3824,-1.387,-1.3932,-1.3939,-1.3946,-1.4027,-1.4044,-1.4059,0,0,0,0,0,0,-1.3897,-1.387,-1.3843,-1.3901,-1.39,-1.388,-1.3915,-1.388,-1.3891,-1.3883,-1.3841,-1.3839,-1.3892,-1.3885,-1.3845,-1.3943,-1.3886,-1.3895,-1.3945,-1.3962,-1.3975,-1.3976,-1.3774,0,0,0,0,0,-1.3923,-1.3946,-1.3922,-1.3975,-1.3976,-1.3946,-1.3956,-1.393,-1.3928,-1.3927,-1.3914,-1.3914,-1.3933,-1.3947,-1.3963,-1.4031,-1.4028,-1.4065,-1.4078,-1.409,-1.4098,-1.4134,-1.4151,-1.3974,-1.3974,-1.3974,0,0,-1.3976,-1.3964,-1.3982,-1.3992,-1.3989,-1.4015,-1.3946,-1.3976,-1.3995,-1.3932,-1.3975,-1.3965,-1.3963,-1.402,-1.4045,-1.4016,-1.4146,-1.4099,-1.4108,-1.411,-1.4143,-1.416,-1.4175,-1.3979,-1.3978,-1.3977,0,0,-1.4087,-1.408,-1.4124,-1.4122,-1.4116,-1.4096,-1.4107,-1.4091,-1.4083,-1.4125,-1.4078,-1.41,-1.4134,-1.4134,-1.4139,-1.425,-1.4214,-1.4256,-1.4327,-1.4362,-1.4376,-1.4388,-1.4429,-1.4444,-1.4264,-1.4265,-1.4265,0,-1.4155,-1.4191,-1.4152,-1.4185,-1.4192,-1.4134,-1.4179,-1.4179,-1.418,-1.4186,-1.4153,-1.4195,-1.4189,-1.4246,-1.4273,-1.4278,-1.429,-1.4258,-1.4377,-1.4389,-1.44,-1.4438,-1.4454,-1.427,-1.4269,-1.4269,-1.4268,0,-1.4275,-1.4301,-1.4337,-1.4339,-1.4349,-1.4388,-1.4356,-1.4371,-1.4344,-1.4327,-1.4371,-1.4362,-1.4375,-1.4386,-1.436,-1.444,-1.4423,-1.4384,-1.4327,-1.4423,-1.4458,-1.4472,-1.4277,-1.4275,-1.4274,-1.4273,0,0,-1.444,-1.4419,-1.4433,-1.4433,-1.4423,-1.4443,-1.448,-1.4492,-1.4507,-1.4509,-1.454,-1.457,-1.4534,-1.454,-1.4513,-1.4544,-1.4634,-1.4502,-1.4501,-1.4528,-1.4722,-1.4752,-1.477,-1.4609,-1.4612,-1.4614,-1.4723,0,-1.4548,-1.4609,-1.4574,-1.4641,-1.4665,-1.4611,-1.4643,-1.4641,-1.4626,-1.4645,-1.4628,-1.465,-1.4601,-1.4604,-1.4632,-1.4617,-1.4673,-1.4608,-1.4639,-1.464,-1.4642,-1.4788,-1.482,-1.4923,-1.4737,-1.4739,-1.474,0,-1.4681,-1.4689,-1.4758,-1.4743,-1.4752,-1.4781,-1.479,-1.4809,-1.4805,-1.4792,-1.4798,-1.4764,-1.48,-1.4743,-1.4793,-1.475,-1.476,-1.4755,-1.4758,-1.476,-1.4697,-1.4796,-1.4955,-1.4971,-1.4762,-1.476,-1.4758,0,-1.4797,-1.4824,-1.4869,-1.487,-1.4854,-1.4877,-1.4871,-1.4865,-1.4874,-1.4882,-1.4889,-1.4901,-1.4908,-1.4919,-1.489,-1.485,-1.4944,-1.4884,-1.4935,-1.4936,-1.4959,-1.4958,-1.5123,-1.4963,-1.4963,-1.4963,-1.4963,0,-1.4921,-1.4966,-1.492,-1.4948,-1.4996,-1.4957,-1.5006,-1.4995,-1.499,-1.5015,-1.4968,-1.4994,-1.4952,-1.4973,-1.4951,-1.4996,-1.4999,-1.4991,-1.4985,-1.4996,-1.4997,-1.5003,-1.4996,-1.4967,-1.4966,-1.4965,-1.4965,0,-1.5059,-1.503,-1.5075,-1.5056,-1.5052,-1.5089,-1.5073,-1.5099,-1.508,-1.5113,-1.5118,-1.509,-1.5112,-1.5083,-1.5103,-1.5088,-1.515,-1.5133,-1.5152,-1.5147,-1.5201,-1.5197,-1.5376,-1.5399,-1.5224,-1.5225,-1.5227,0,-1.5141,-1.5173,-1.5158,-1.5171,-1.5168,-1.519,-1.5199,-1.5161,-1.5174,-1.5172,-1.5198,-1.5216,-1.5229,-1.5268,-1.525,-1.5265,-1.5248,-1.531,-1.525,-1.5261,-1.5251,-1.525,-1.5253,-1.5323,-1.5325,-1.5327,-1.5328,0,-1.5289,-1.5273,-1.5288,-1.5299,-1.5312,-1.5318,-1.5322,-1.5335,-1.5296,-1.5312,-1.5334,-1.5344,-1.5363,-1.5383,-1.5393,-1.5388,-1.5353,-1.5347,-1.536,-1.5372,-1.5383,-1.5379,-1.5186,-1.5343,-1.5342,-1.5341,-1.534,-1.5339,-1.5402,-1.5429,-1.5422,-1.5441,-1.5439,-1.5443,-1.5466,-1.5451,-1.5468,-1.5481,-1.5457,-1.5486,-1.5482,-1.5492,-1.5491,-1.5513,-1.5487,-1.5505,-1.551,-1.5516,-1.5525,-1.5378,-1.5515,-1.5514,-1.5514,-1.5514,-1.5513,0,-1.555,-1.5542,-1.556,-1.5566,-1.5581,-1.5544,-1.5546,-1.5561,-1.5586,-1.5585,-1.5598,-1.5624,-1.5643,-1.5626,-1.5641,-1.5662,-1.5646,-1.5668,-1.5666,-1.5666,-1.5547,-1.5535,-1.568,-1.568,-1.568,-1.568,-1.568,-1.568,-1.5628,-1.5672,-1.5656,-1.5699,-1.5691,-1.5718,-1.5722,-1.5726,-1.5725,-1.5756,-1.577,-1.5759,-1.5752,-1.5766,-1.5782,-1.5776,-1.5785,-1.5813,-1.5802,-1.5691,-1.5674,-1.5659,-1.5647,-1.5814,-1.5815,-1.5919,-1.592,-1.5921]},{"header":{"parameterUnit":"m.s-1","parameterCategory":1,"la1":30.2991,"la2":30.254,"lo1":-89.0895,"lo2":-89.0444,"dy":0.0017,"dx":0.0017,"nx":28,"ny":28,"refTime":"2025-12-04T03:00:00:Z","depth":0,"parameterNumber":3,"parameterNumberName":"V-component_of_WINDS"},"data":[0,0,0,0,0,0,0,0,0,0,0,0,0,0,0,0,0,0,0,0,0,0,0,0,0,0,0,0,0,0,0,0,0,0,0,0,0,0,0,0,0,0,0,0,0,0,0,0,0,0,0,0,0,0,0,0,0,0,0.4555,0.4554,0,0.4486,0.4485,0.4484,0.4479,0.448,0.448,0.4481,0.4406,0.4403,0.4401,0,0,0,0,0,0,0,0,0,0,0,0,0,0.4678,0.4676,0.4555,0.4554,0.4553,0.4486,0.4485,0.4484,0.4479,0.448,0.4481,0.4481,0.4407,0.4404,0.4401,0,0,0,0,0,0,0,0,0,0,0,0,0,0.4618,0.4675,0.4555,0.4542,0.4541,0.4486,0.4485,0.4484,0.4478,0.448,0.4481,0.4482,0.4408,0.4404,0.44,0.4352,0,0,0.4388,0.4386,0,0,0,0,0,0,0,0,0.4622,0.4614,0.4545,0.4543,0.4541,0.4492,0.4501,0.4439,0.4478,0.4502,0.4481,0.4482,0.4434,0.4427,0.4412,0.4349,0.4345,0.4387,0.4385,0.4383,0.4382,0,0,0,0,0,0,0,0.4626,0.4617,0.4527,0.4544,0.4542,0.4539,0.4532,0.4489,0.4462,0.45,0.4499,0.4492,0.4433,0.4416,0.441,0.4344,0.4387,0.4384,0.4381,0.438,0.4238,0.4237,0,0,0,0,0,0,0.4633,0.462,0.453,0.4525,0.4585,0.4536,0.4528,0.4507,0.4462,0.4457,0.4491,0.4492,0.4422,0.4415,0.4407,0.4348,0.4383,0.4379,0.4377,0.424,0.4238,0.4237,0,0,0,0,0,0,0.4636,0.4625,0.4532,0.4573,0.4561,0.4533,0.4509,0.4505,0.4488,0.4456,0.445,0.4479,0.4423,0.4413,0.4366,0.4346,0.4378,0.4374,0.4241,0.4239,0.4237,0.423,0,0,0,0,0,0,0.4639,0.4626,0.4608,0.4572,0.4559,0.4493,0.4508,0.4502,0.4481,0.4482,0.4443,0.4437,0.4423,0.4372,0.4362,0.4341,0.4371,0.4243,0.424,0.4238,0.4232,0.4228,0.4225,0,0,0,0,0,0.4644,0.4608,0.4607,0.4596,0.4536,0.4492,0.4484,0.4469,0.448,0.4461,0.4441,0.4439,0.435,0.4368,0.4356,0.4333,0.4244,0.4241,0.4238,0.4233,0.4229,0.4225,0,0,0,0,0,0,0.464,0.4603,0.4602,0.4553,0.4526,0.4491,0.4467,0.4465,0.4433,0.4434,0.4416,0.4407,0.4361,0.4342,0.4363,0.4284,0.4298,0.4293,0.4298,0.4293,0.429,0.4295,0.4367,0,0,0,0,0,0.4634,0.4603,0.4571,0.4531,0.4518,0.4495,0.4475,0.4467,0.4437,0.4425,0.4401,0.4371,0.4337,0.4314,0.4281,0.423,0.4221,0.4208,0.4204,0.4202,0.4197,0.4168,0.4162,0.4227,0.4227,0.4227,0,0,0.462,0.4596,0.4577,0.453,0.4508,0.4475,0.4485,0.445,0.4425,0.4419,0.4374,0.4355,0.4321,0.4272,0.4249,0.4255,0.4177,0.4198,0.4196,0.4192,0.4165,0.4159,0.4153,0.4225,0.4225,0.4226,0,0,0.4578,0.4557,0.4522,0.45,0.4467,0.4452,0.4444,0.441,0.4398,0.4353,0.4348,0.4317,0.4258,0.4234,0.4214,0.4165,0.4162,0.4154,0.4135,0.4107,0.4102,0.4097,0.4079,0.4073,0.415,0.415,0.415,0,0.4564,0.4516,0.4503,0.4469,0.4448,0.4444,0.4407,0.4386,0.4343,0.4329,0.4336,0.4263,0.4239,0.4185,0.4173,0.4157,0.4146,0.4158,0.4104,0.4099,0.4095,0.4077,0.4071,0.4149,0.4149,0.4149,0.4149,0,0.4501,0.4467,0.4443,0.4403,0.438,0.4345,0.4326,0.4304,0.4297,0.4282,0.4236,0.4208,0.4168,0.4155,0.4148,0.4099,0.4104,0.4108,0.4121,0.4088,0.4071,0.4065,0.4148,0.4148,0.4148,0.4149,0,0,0.4452,0.4409,0.44,0.4382,0.4346,0.4319,0.4284,0.4247,0.4228,0.4199,0.4168,0.4119,0.4123,0.4101,0.4091,0.4067,0.4029,0.4074,0.4073,0.4066,0.3974,0.397,0.3963,0.4028,0.4027,0.4026,0.3977,0,0.4406,0.4344,0.4332,0.4278,0.4246,0.4243,0.4211,0.4186,0.417,0.4141,0.4123,0.4089,0.4097,0.4083,0.4059,0.4039,0.4011,0.4043,0.3998,0.3996,0.4005,0.3954,0.395,0.3905,0.397,0.3969,0.3968,0,0.4343,0.4315,0.4257,0.4227,0.4213,0.4186,0.4152,0.4124,0.4094,0.4085,0.4061,0.4054,0.4016,0.4032,0.3978,0.4001,0.3982,0.3969,0.3967,0.3961,0.3979,0.3946,0.3891,0.3884,0.3958,0.3959,0.3959,0,0.4313,0.426,0.422,0.4205,0.4168,0.4149,0.4132,0.4104,0.4083,0.4053,0.4039,0.4005,0.3985,0.3958,0.3942,0.3955,0.389,0.3905,0.388,0.388,0.3865,0.3866,0.3805,0.3855,0.3855,0.3855,0.3855,0,0.4262,0.4227,0.4206,0.418,0.4141,0.4128,0.4089,0.4073,0.4048,0.4019,0.4013,0.3985,0.3966,0.3935,0.3922,0.388,0.3871,0.3862,0.3859,0.3862,0.3863,0.3848,0.385,0.3853,0.3853,0.3854,0.3854,0,0.4221,0.4206,0.4161,0.4131,0.4122,0.4095,0.4068,0.4043,0.4029,0.3991,0.3982,0.3958,0.3922,0.3904,0.3858,0.385,0.3802,0.3801,0.3812,0.381,0.3787,0.3789,0.3713,0.3702,0.376,0.3759,0.3759,0,0.4189,0.4162,0.413,0.4111,0.4095,0.4063,0.4043,0.4029,0.4007,0.3973,0.3951,0.3916,0.3886,0.3828,0.3806,0.3771,0.3769,0.3745,0.3763,0.3767,0.3767,0.3769,0.3766,0.3741,0.374,0.374,0.3739,0,0.4133,0.4128,0.4099,0.4067,0.4043,0.4017,0.3992,0.3976,0.3958,0.3934,0.3898,0.3875,0.383,0.3794,0.3757,0.3739,0.3736,0.3734,0.3726,0.3729,0.3736,0.3731,0.3802,0.3735,0.3736,0.3736,0.3736,0.3736,0.4095,0.4071,0.4046,0.4014,0.3994,0.397,0.3945,0.3929,0.3899,0.3862,0.3855,0.3817,0.3788,0.374,0.3721,0.369,0.3695,0.3684,0.3681,0.3678,0.3676,0.3742,0.3683,0.3683,0.3683,0.3683,0.3683,0,0.4039,0.4022,0.3993,0.3959,0.3934,0.3935,0.3907,0.3886,0.3853,0.3827,0.3799,0.3757,0.3723,0.3699,0.3664,0.3643,0.3641,0.3634,0.3635,0.3631,0.3674,0.3684,0.3637,0.3637,0.3637,0.3637,0.3637,0.3637,0.4006,0.3966,0.3958,0.3908,0.3891,0.3855,0.3839,0.3817,0.3797,0.3751,0.3723,0.3709,0.3684,0.3647,0.3615,0.3609,0.3595,0.3589,0.3582,0.3623,0.3628,0.3632,0.3642,0.3586,0.3586,0.3541,0.3541,0.3541]}]]